Regional Weather Roundup
Issued by NWS

Home | Current Version | Previous Version | Graphics & Text | Print | Product List | Glossary On
Versions: 1 2 3 4 5 6 7 8 9 10 11 12 13 14 15 16 17 18 19 20 21 22 23 24 25 26 27 28 29 30 31 32 33 34 35 36 37 38 39 40 41 42 43 44 45 46 47 48 49 50
000
ASUS43 KOAX 240602
RWRNE

WEATHER ROUNDUP FOR NEBRASKA
NATIONAL WEATHER SERVICE OMAHA NE
100 AM CDT WED AUG 24 2016

NOTES: SATELLITE DATA IS BEING USED TO AUGMENT CLOUD COVER ABOVE
       12000 FEET.
       "FAIR" INDICATES FEW OR NO CLOUDS BELOW 12,000 FEET WITH NO
       SIGNIFICANT WEATHER AND/OR OBSTRUCTIONS TO VISIBILITY.

  * THESE STATIONS DO NOT REPORT WEATHER SUCH AS RAIN...SNOW OR FOG.

NEZ001>004-019>022-054>056-240700-
NEBRASKA PANHANDLE

CITY           SKY/WX    TMP DP  RH WIND       PRES   REMARKS
SCOTTSBLUFF    PTCLDY    57  45  64 E6        30.09S
6HR MIN TEMP:  57; 6HR MAX TEMP:  83;

ALLIANCE       CLEAR     49  43  80 N7        30.08F
6HR MIN TEMP:  48; 6HR MAX TEMP:  78;

CHADRON        PTCLDY    53  34  48 S5        30.08R
6HR MIN TEMP:  52; 6HR MAX TEMP:  83;

SIDNEY         MOCLDY    59  47  64 CALM      30.12R
6HR MIN TEMP:  55; 6HR MAX TEMP:  81;

$$

NEZ057>060-069>072-079>082-240700-
SOUTHWEST NEBRASKA

CITY           SKY/WX    TMP DP  RH WIND       PRES   REMARKS
NORTH PLATTE   CLEAR     56  47  71 NE7       29.99S
6HR MIN TEMP:  55; 6HR MAX TEMP:  85;

IMPERIAL       CLOUDY    61  47  59 N8        30.02S
6HR MIN TEMP:  59; 6HR MAX TEMP:  85;

LEXINGTON      CLEAR     66  51  58 N7        29.97S
MCCOOK         CLEAR     65  50  58 NE5       29.95F
6HR MIN TEMP:  65; 6HR MAX TEMP:  92;

OGALLALA       CLEAR     61  43  51 S3        30.04R
$$

NEZ005>010-023>029-035>040-094-240700-
NORTH CENTRAL NEBRASKA

CITY           SKY/WX    TMP DP  RH WIND       PRES   REMARKS
VALENTINE      CLEAR     56  41  57 NW8       30.00R
6HR MIN TEMP:  54; 6HR MAX TEMP:  83;

AINSWORTH      CLEAR     62  46  56 N6        29.99S
BROKEN BOW     CLEAR     59  51  75 N5        29.98R
6HR MIN TEMP:  57; 6HR MAX TEMP:  82;

O`NEILL        CLEAR     63  53  69 NW7       29.96R
ORD            CLEAR     62  54  74 NW7       29.94R
6HR MIN TEMP:  62; 6HR MAX TEMP:  86;

THEDFORD       CLEAR     56  45  65 W5        30.02S
$$

NEZ041-046>049-061>064-073>077-083>087-240700-
SOUTH CENTRAL NEBRASKA

CITY           SKY/WX    TMP DP  RH WIND       PRES   REMARKS
GRAND ISLAND   PTCLDY    69  61  75 N7        29.93R
6HR MIN TEMP:  69; 6HR MAX TEMP:  90;

AURORA         CLEAR     74  64  69 N8        29.90S
HASTINGS       CLEAR     72  61  68 N12       29.92R
6HR MIN TEMP:  72; 6HR MAX TEMP:  88;

HEBRON         CLEAR     74  69  85 S6        29.87R
HOLDREGE       CLEAR     65  58  79 N3        29.95S
KEARNEY *      CLEAR    N/A N/A N/A N8        29.93R
$$

NEZ011>018-030>034-042>045-240700-
NORTHEAST NEBRASKA

CITY           SKY/WX    TMP DP  RH WIND       PRES   REMARKS
NORFOLK        MOCLDY    68  65  90 SW7       29.89R
6HR MIN TEMP:  67; 6HR MAX TEMP:  86; 6HR PCP:  0.07;

ALBION         CLEAR     68  60  74 CALM      29.92R
BLAIR          CLOUDY    67  66  97 S7        29.85F
FREMONT        CLOUDY    67  64  90 S3        29.87R
TEKAMAH        CLOUDY    68  63  84 VRB5      29.82F
6HR MIN TEMP:  67; 6HR MAX TEMP:  82; 6HR PCP:  0.51;

WAYNE          CLOUDY    72  66  83 SW12      29.87S
$$

NEZ050>053-065>068-078-088>093-240700-
SOUTHEAST NEBRASKA

CITY           SKY/WX    TMP DP  RH WIND       PRES   REMARKS
LINCOLN        MOCLDY    67  65  93 E5        29.90F
6HR MIN TEMP:  66; 6HR MAX TEMP:  87; 6HR PCP:  0.17;

OMAHA EPPLEY   CLOUDY    69  64  84 S12       29.87  THUNDER
6HR MIN TEMP:  66; 6HR MAX TEMP:  82; 6HR PCP:  1.11;

BEATRICE       CLEAR     73  64  74 NE12      29.90R
FALLS CITY     LGT RAIN  73  66  78 S16       29.89S
6HR MIN TEMP:  73; 6HR MAX TEMP:  85; 6HR PCP:  0.51;

NEBRASKA CITY  CLOUDY    65  65 100 CALM      29.98R
PLATTSMOUTH    TSTM      66  65  96 SW10G17   29.89F
$$

NEZ044-045-051>053-067-240700-
OMAHA AREA

CITY           SKY/WX    TMP DP  RH WIND       PRES   REMARKS
OMAHA EPPLEY   CLOUDY    69  64  84 S12       29.87  THUNDER
6HR MIN TEMP:  66; 6HR MAX TEMP:  82; 6HR PCP:  1.11;

BLAIR          CLOUDY    67  66  97 S7        29.85F
FREMONT        CLOUDY    67  64  90 S3        29.87R
MILLARD        MIX PCPN  68  64  88 S5        29.85S
OFFUTT AFB     MOCLDY    65  65 100 SW6       29.85R THUNDER
PLATTSMOUTH    TSTM      66  65  96 SW10G17   29.89F
WAHOO          RAIN      67  65  93 N7        29.92R
$$




USA.gov is the U.S. government's official web portal to all federal, state and local government web resources and services.